Time,TemperatureF,DewpointF,PressureIn,WindDirection,WindDirectionDegrees,WindSpeedMPH,WindSpeedGustMPH,Humidity,HourlyPrecipIn,Conditions,Clouds,dailyrainin,SolarRadiationWatts/m^2,SoftwareType,DateUTC
2013-10-22 00:04:00,32.8,29.1,30.17,SSW,203,0.0,1.0,86,0.00,,,0.00,0,Wunderground v.1.15,2013-10-22 06:04:00,
2013-10-22 00:09:00,32.8,29.1,30.17,SSW,203,0.0,1.0,86,0.00,,,0.00,0,Wunderground v.1.15,2013-10-22 06:09:00,
2013-10-22 00:14:00,32.7,29.0,30.17,SSW,203,0.0,0.0,86,0.00,,,0.00,0,Wunderground v.1.15,2013-10-22 06:14:00,
2013-10-22 00:20:00,32.8,29.4,30.18,SSW,202,4.0,4.0,87,0.00,,,0.00,0,Wunderground v.1.15,2013-10-22 06:20:00,
2013-10-22 00:25:00,33.1,29.7,30.18,SSW,200,3.0,4.0,87,0.00,,,0.00,0,Wunderground v.1.15,2013-10-22 06:25:00,
2013-10-22 00:30:00,33.4,29.9,30.18,SSW,200,2.0,3.0,87,0.00,,,0.00,0,Wunderground v.1.15,2013-10-22 06:30:00,
2013-10-22 00:35:00,33.5,30.0,30.18,SSW,200,3.0,4.0,87,0.00,,,0.00,0,Wunderground v.1.15,2013-10-22 06:35:00,
2013-10-22 00:41:00,33.7,30.2,30.18,SSW,199,1.0,2.0,87,0.00,,,0.00,0,Wunderground v.1.15,2013-10-22 06:41:00,
2013-10-22 00:47:00,33.9,30.4,30.17,SSW,199,0.0,4.0,87,0.00,,,0.00,0,Wunderground v.1.15,2013-10-22 06:47:00,
2013-10-22 00:52:00,33.8,30.3,30.17,SSW,198,0.0,1.0,87,0.00,,,0.00,0,Wunderground v.1.15,2013-10-22 06:52:00,
2013-10-22 00:58:00,33.5,29.8,30.17,SSW,198,0.0,1.0,86,0.00,,,0.00,0,Wunderground v.1.15,2013-10-22 06:58:00,
2013-10-22 01:03:00,33.3,29.6,30.18,SSW,198,0.0,0.0,86,0.00,,,0.00,0,Wunderground v.1.15,2013-10-22 07:03:00,
2013-10-22 01:09:00,32.9,29.2,30.18,SSW,198,0.0,0.0,86,0.00,,,0.00,0,Wunderground v.1.15,2013-10-22 07:09:00,
2013-10-22 01:14:00,32.4,28.7,30.18,SSW,198,0.0,0.0,86,0.00,,,0.00,0,Wunderground v.1.15,2013-10-22 07:14:00,
2013-10-22 01:19:00,32.0,28.3,30.18,SSW,198,0.0,0.0,86,0.00,,,0.00,0,Wunderground v.1.15,2013-10-22 07:19:00,
2013-10-22 01:24:00,31.8,28.1,30.18,SSW,198,0.0,0.0,86,0.00,,,0.00,0,Wunderground v.1.15,2013-10-22 07:24:00,
2013-10-22 01:30:00,31.5,27.8,30.18,SSW,198,0.0,0.0,86,0.00,,,0.00,0,Wunderground v.1.15,2013-10-22 07:30:00,
2013-10-22 01:35:00,31.0,27.3,30.18,SSW,198,0.0,0.0,86,0.00,,,0.00,0,Wunderground v.1.15,2013-10-22 07:35:00,
2013-10-22 01:41:00,30.7,27.0,30.18,SSW,198,0.0,0.0,86,0.00,,,0.00,0,Wunderground v.1.15,2013-10-22 07:41:00,
2013-10-22 01:47:00,30.6,26.9,30.19,SSW,198,0.0,0.0,86,0.00,,,0.00,0,Wunderground v.1.15,2013-10-22 07:47:00,
2013-10-22 01:52:00,30.3,26.9,30.19,SSW,198,0.0,0.0,87,0.00,,,0.00,0,Wunderground v.1.15,2013-10-22 07:52:00,
2013-10-22 01:57:00,30.2,26.8,30.19,SSW,198,0.0,0.0,87,0.00,,,0.00,0,Wunderground v.1.15,2013-10-22 07:57:00,
2013-10-22 02:02:00,30.1,26.7,30.19,SSW,198,0.0,0.0,87,0.00,,,0.00,0,Wunderground v.1.15,2013-10-22 08:02:00,
2013-10-22 02:07:00,30.0,26.6,30.19,SSW,198,0.0,0.0,87,0.00,,,0.00,0,Wunderground v.1.15,2013-10-22 08:07:00,
2013-10-22 02:12:00,29.8,26.4,30.19,SSW,198,0.0,0.0,87,0.00,,,0.00,0,Wunderground v.1.15,2013-10-22 08:12:00,
2013-10-22 02:17:00,29.7,26.3,30.19,SSW,198,0.0,0.0,87,0.00,,,0.00,0,Wunderground v.1.15,2013-10-22 08:17:00,
2013-10-22 02:22:00,29.6,26.2,30.19,SSW,198,0.0,0.0,87,0.00,,,0.00,0,Wunderground v.1.15,2013-10-22 08:22:00,
2013-10-22 02:27:00,29.4,26.0,30.19,SSW,198,0.0,0.0,87,0.00,,,0.00,0,Wunderground v.1.15,2013-10-22 08:27:00,
2013-10-22 02:32:00,29.2,25.8,30.19,SSW,198,0.0,0.0,87,0.00,,,0.00,0,Wunderground v.1.15,2013-10-22 08:32:00,
2013-10-22 02:37:00,28.7,25.3,30.19,SSW,198,0.0,0.0,87,0.00,,,0.00,0,Wunderground v.1.15,2013-10-22 08:37:00,
2013-10-22 02:42:00,28.5,25.1,30.19,SSW,198,0.0,0.0,87,0.00,,,0.00,0,Wunderground v.1.15,2013-10-22 08:42:00,
2013-10-22 02:47:00,28.3,24.9,30.19,SSW,198,0.0,0.0,87,0.00,,,0.00,0,Wunderground v.1.15,2013-10-22 08:47:00,
2013-10-22 02:52:00,28.4,25.0,30.19,SSW,198,0.0,0.0,87,0.00,,,0.00,0,Wunderground v.1.15,2013-10-22 08:52:00,
2013-10-22 07:59:00,22.5,19.7,30.22,SSW,198,0.0,0.0,89,0.00,,,0.00,0,Wunderground v.1.15,2013-10-22 13:59:00,
2013-10-22 08:04:00,22.4,19.6,30.22,SSW,198,0.0,0.0,89,0.00,,,0.00,5,Wunderground v.1.15,2013-10-22 14:04:00,
2013-10-22 08:09:00,22.3,19.6,30.22,SSW,198,0.0,0.0,89,0.00,,,0.00,7,Wunderground v.1.15,2013-10-22 14:09:00,
2013-10-22 08:14:00,22.2,19.5,30.22,SSW,198,0.0,0.0,89,0.00,,,0.00,9,Wunderground v.1.15,2013-10-22 14:14:00,
2013-10-22 08:19:00,22.3,19.6,30.22,SSW,198,0.0,0.0,89,0.00,,,0.00,11,Wunderground v.1.15,2013-10-22 14:19:00,
2013-10-22 08:24:00,22.5,19.7,30.22,SSW,198,0.0,0.0,89,0.00,,,0.00,18,Wunderground v.1.15,2013-10-22 14:24:00,
2013-10-22 08:29:00,22.8,20.0,30.22,SSW,198,0.0,0.0,89,0.00,,,0.00,30,Wunderground v.1.15,2013-10-22 14:29:00,
2013-10-22 08:34:00,23.2,20.4,30.21,SSW,198,0.0,0.0,89,0.00,,,0.00,49,Wunderground v.1.15,2013-10-22 14:34:00,
2013-10-22 08:39:00,23.8,21.0,30.21,SSW,198,0.0,0.0,89,0.00,,,0.00,63,Wunderground v.1.15,2013-10-22 14:39:00,
2013-10-22 08:44:00,24.2,21.7,30.21,SSW,198,0.0,0.0,90,0.00,,,0.00,81,Wunderground v.1.15,2013-10-22 14:44:00,
2013-10-22 08:49:00,25.2,22.7,30.22,SSW,198,0.0,0.0,90,0.00,,,0.00,91,Wunderground v.1.15,2013-10-22 14:49:00,
2013-10-22 08:54:00,26.6,24.1,30.22,SSW,198,0.0,0.0,90,0.00,,,0.00,95,Wunderground v.1.15,2013-10-22 14:54:00,
2013-10-22 08:59:00,27.9,25.3,30.22,SSW,198,0.0,0.0,90,0.00,,,0.00,102,Wunderground v.1.15,2013-10-22 14:59:00,
2013-10-22 09:04:00,28.6,25.8,30.22,SSW,198,0.0,0.0,89,0.00,,,0.00,109,Wunderground v.1.15,2013-10-22 15:04:00,
2013-10-22 09:09:00,29.0,26.2,30.22,SSW,198,0.0,0.0,89,0.00,,,0.00,123,Wunderground v.1.15,2013-10-22 15:09:00,
2013-10-22 09:14:00,29.9,26.8,30.22,SSW,198,0.0,0.0,88,0.00,,,0.00,137,Wunderground v.1.15,2013-10-22 15:14:00,
2013-10-22 09:19:00,30.9,27.8,30.22,SSW,198,0.0,0.0,88,0.00,,,0.00,153,Wunderground v.1.15,2013-10-22 15:19:00,
2013-10-22 09:24:00,31.5,28.1,30.22,SSW,198,0.0,0.0,87,0.00,,,0.00,169,Wunderground v.1.15,2013-10-22 15:24:00,
2013-10-22 09:29:00,32.1,28.4,30.22,SSW,198,0.0,0.0,86,0.00,,,0.00,181,Wunderground v.1.15,2013-10-22 15:29:00,
2013-10-22 09:34:00,31.8,27.8,30.22,SSW,198,0.0,0.0,85,0.00,,,0.00,200,Wunderground v.1.15,2013-10-22 15:34:00,
2013-10-22 09:39:00,32.0,28.0,30.22,SSW,198,0.0,0.0,85,0.00,,,0.00,218,Wunderground v.1.15,2013-10-22 15:39:00,
2013-10-22 09:44:00,32.7,29.0,30.22,SSW,198,0.0,0.0,86,0.00,,,0.00,234,Wunderground v.1.15,2013-10-22 15:44:00,
2013-10-22 09:49:00,34.4,30.6,30.22,SSW,198,0.0,0.0,86,0.00,,,0.00,250,Wunderground v.1.15,2013-10-22 15:49:00,
2013-10-22 09:54:00,34.9,30.3,30.22,SSW,198,0.0,0.0,83,0.00,,,0.00,265,Wunderground v.1.15,2013-10-22 15:54:00,
2013-10-22 09:59:00,35.5,30.2,30.22,SSW,198,0.0,0.0,81,0.00,,,0.00,279,Wunderground v.1.15,2013-10-22 15:59:00,
2013-10-22 10:04:00,35.9,30.3,30.22,SSW,198,0.0,0.0,80,0.00,,,0.00,292,Wunderground v.1.15,2013-10-22 16:04:00,
2013-10-22 10:09:00,36.4,30.5,30.22,SSW,198,0.0,0.0,79,0.00,,,0.00,304,Wunderground v.1.15,2013-10-22 16:09:00,
2013-10-22 10:14:00,36.9,30.7,30.22,SSW,198,0.0,0.0,78,0.00,,,0.00,315,Wunderground v.1.15,2013-10-22 16:14:00,
2013-10-22 10:19:00,37.6,31.0,30.21,SSW,198,0.0,0.0,77,0.00,,,0.00,327,Wunderground v.1.15,2013-10-22 16:19:00,
2013-10-22 10:24:00,38.3,31.7,30.21,SSW,198,0.0,0.0,77,0.00,,,0.00,325,Wunderground v.1.15,2013-10-22 16:24:00,
2013-10-22 10:29:00,38.9,32.0,30.21,SSW,198,0.0,0.0,76,0.00,,,0.00,323,Wunderground v.1.15,2013-10-22 16:29:00,
2013-10-22 10:34:00,39.5,32.6,30.21,SSW,198,0.0,0.0,76,0.00,,,0.00,352,Wunderground v.1.15,2013-10-22 16:34:00,
2013-10-22 10:39:00,40.0,33.4,30.21,SSW,198,0.0,0.0,77,0.00,,,0.00,348,Wunderground v.1.15,2013-10-22 16:39:00,
2013-10-22 10:44:00,40.8,33.8,30.21,SSW,198,0.0,0.0,76,0.00,,,0.00,332,Wunderground v.1.15,2013-10-22 16:44:00,
2013-10-22 10:49:00,41.5,34.2,30.21,SSW,198,0.0,0.0,75,0.00,,,0.00,316,Wunderground v.1.15,2013-10-22 16:49:00,
2013-10-22 10:54:00,41.8,34.5,30.21,SSW,198,0.0,2.0,75,0.00,,,0.00,399,Wunderground v.1.15,2013-10-22 16:54:00,
2013-10-22 10:59:00,42.4,34.7,30.21,SSW,198,0.0,2.0,74,0.00,,,0.00,408,Wunderground v.1.15,2013-10-22 16:59:00,
2013-10-22 11:04:00,43.6,34.8,30.20,SSW,198,0.0,0.0,71,0.00,,,0.00,418,Wunderground v.1.15,2013-10-22 17:04:00,
2013-10-22 11:09:00,44.2,35.7,30.20,SSW,198,0.0,2.0,72,0.00,,,0.00,427,Wunderground v.1.15,2013-10-22 17:09:00,
2013-10-22 11:14:00,44.8,36.0,30.20,SSW,199,0.0,1.0,71,0.00,,,0.00,434,Wunderground v.1.15,2013-10-22 17:14:00,
2013-10-22 11:19:00,45.9,36.7,30.20,SSW,198,0.0,1.0,70,0.00,,,0.00,443,Wunderground v.1.15,2013-10-22 17:19:00,
2013-10-22 11:24:00,46.0,36.8,30.20,SSW,198,0.0,0.0,70,0.00,,,0.00,450,Wunderground v.1.15,2013-10-22 17:24:00,
2013-10-22 11:29:00,46.5,36.1,30.20,SSW,198,0.0,0.0,67,0.00,,,0.00,457,Wunderground v.1.15,2013-10-22 17:29:00,
2013-10-22 11:34:00,46.6,36.2,30.19,SSW,198,0.0,0.0,67,0.00,,,0.00,466,Wunderground v.1.15,2013-10-22 17:34:00,
2013-10-22 11:39:00,46.3,35.9,30.19,SSW,198,0.0,1.0,67,0.00,,,0.00,469,Wunderground v.1.15,2013-10-22 17:39:00,
2013-10-22 11:44:00,47.9,36.7,30.19,SSW,198,0.0,0.0,65,0.00,,,0.00,476,Wunderground v.1.15,2013-10-22 17:44:00,
2013-10-22 11:49:00,49.1,37.0,30.18,SSW,198,0.0,0.0,63,0.00,,,0.00,482,Wunderground v.1.15,2013-10-22 17:49:00,
2013-10-22 11:54:00,49.4,36.5,30.18,SSW,198,0.0,1.0,61,0.00,,,0.00,489,Wunderground v.1.15,2013-10-22 17:54:00,
2013-10-22 11:59:00,50.0,36.2,30.18,SSW,198,0.0,1.0,59,0.00,,,0.00,494,Wunderground v.1.15,2013-10-22 17:59:00,
2013-10-22 12:04:00,50.1,37.2,30.17,SSW,198,0.0,0.0,61,0.00,,,0.00,499,Wunderground v.1.15,2013-10-22 18:04:00,
2013-10-22 12:09:00,51.2,37.8,30.17,South,179,0.0,4.0,60,0.00,,,0.00,503,Wunderground v.1.15,2013-10-22 18:09:00,
2013-10-22 12:14:00,52.1,37.8,30.17,SSE,160,0.0,4.0,58,0.00,,,0.00,506,Wunderground v.1.15,2013-10-22 18:14:00,
2013-10-22 12:19:00,52.5,37.2,30.17,East,88,0.0,6.0,56,0.00,,,0.00,510,Wunderground v.1.15,2013-10-22 18:19:00,
2013-10-22 12:24:00,52.7,37.4,30.17,ENE,70,0.0,4.0,56,0.00,,,0.00,513,Wunderground v.1.15,2013-10-22 18:24:00,
2013-10-22 12:29:00,53.3,38.0,30.17,NE,51,0.0,4.0,56,0.00,,,0.00,517,Wunderground v.1.15,2013-10-22 18:29:00,
2013-10-22 12:34:00,54.0,37.7,30.17,NNE,21,1.0,4.0,54,0.00,,,0.00,519,Wunderground v.1.15,2013-10-22 18:34:00,
2013-10-22 12:39:00,54.4,38.1,30.17,NNE,25,0.0,7.0,54,0.00,,,0.00,520,Wunderground v.1.15,2013-10-22 18:39:00,
2013-10-22 12:44:00,54.4,37.6,30.17,NE,34,0.0,9.0,53,0.00,,,0.00,522,Wunderground v.1.15,2013-10-22 18:44:00,
2013-10-22 12:49:00,54.7,38.4,30.17,NNE,30,0.0,9.0,54,0.00,,,0.00,524,Wunderground v.1.15,2013-10-22 18:49:00,
2013-10-22 12:54:00,55.1,38.3,30.17,NNE,29,0.0,6.0,53,0.00,,,0.00,524,Wunderground v.1.15,2013-10-22 18:54:00,
2013-10-22 12:59:00,54.5,37.2,30.17,NNE,17,0.0,6.0,52,0.00,,,0.00,526,Wunderground v.1.15,2013-10-22 18:59:00,
2013-10-22 13:04:00,55.5,37.7,30.15,NE,41,2.0,5.0,51,0.00,,,0.00,526,Wunderground v.1.15,2013-10-22 19:04:00,
2013-10-22 13:09:00,56.6,38.2,30.15,NE,41,0.0,5.0,50,0.00,,,0.00,526,Wunderground v.1.15,2013-10-22 19:09:00,
2013-10-22 13:14:00,57.3,37.2,30.15,NE,41,0.0,1.0,47,0.00,,,0.00,526,Wunderground v.1.15,2013-10-22 19:14:00,
2013-10-22 13:19:00,57.7,37.0,30.14,NE,41,0.0,3.0,46,0.00,,,0.00,527,Wunderground v.1.15,2013-10-22 19:19:00,
2013-10-22 13:24:00,58.6,37.9,30.14,ENE,60,0.0,1.0,46,0.00,,,0.00,526,Wunderground v.1.15,2013-10-22 19:24:00,
2013-10-22 13:29:00,59.0,37.1,30.14,East,84,0.0,3.0,44,0.00,,,0.00,522,Wunderground v.1.15,2013-10-22 19:29:00,
2013-10-22 13:34:00,59.0,37.1,30.13,East,90,0.0,2.0,44,0.00,,,0.00,520,Wunderground v.1.15,2013-10-22 19:34:00,
2013-10-22 13:39:00,59.5,37.6,30.13,East,90,0.0,2.0,44,0.00,,,0.00,519,Wunderground v.1.15,2013-10-22 19:39:00,
2013-10-22 13:44:00,60.3,37.1,30.13,East,91,0.0,0.0,42,0.00,,,0.00,515,Wunderground v.1.15,2013-10-22 19:44:00,
2013-10-22 13:49:00,60.8,36.9,30.13,East,90,0.0,1.0,41,0.00,,,0.00,515,Wunderground v.1.15,2013-10-22 19:49:00,
2013-10-22 13:54:00,61.2,36.7,30.13,East,90,0.0,1.0,40,0.00,,,0.00,513,Wunderground v.1.15,2013-10-22 19:54:00,
2013-10-22 13:59:00,60.1,36.3,30.13,East,88,1.0,4.0,41,0.00,,,0.00,506,Wunderground v.1.15,2013-10-22 19:59:00,
2013-10-22 14:04:00,60.7,36.8,30.11,East,87,0.0,0.0,41,0.00,,,0.00,503,Wunderground v.1.15,2013-10-22 20:04:00,
2013-10-22 14:09:00,60.7,36.2,30.11,NE,48,1.0,4.0,40,0.00,,,0.00,501,Wunderground v.1.15,2013-10-22 20:09:00,
2013-10-22 14:14:00,60.3,35.2,30.11,NE,44,0.0,1.0,39,0.00,,,0.00,494,Wunderground v.1.15,2013-10-22 20:14:00,
2013-10-22 14:19:00,60.1,35.0,30.11,NE,44,0.0,1.0,39,0.00,,,0.00,490,Wunderground v.1.15,2013-10-22 20:19:00,
2013-10-22 14:24:00,60.6,35.5,30.11,NE,40,0.0,6.0,39,0.00,,,0.00,485,Wunderground v.1.15,2013-10-22 20:24:00,
2013-10-22 14:29:00,61.0,35.2,30.11,NNE,24,0.0,6.0,38,0.00,,,0.00,480,Wunderground v.1.15,2013-10-22 20:29:00,
2013-10-22 14:34:00,60.9,35.8,30.11,NNE,22,0.0,1.0,39,0.00,,,0.00,471,Wunderground v.1.15,2013-10-22 20:34:00,
2013-10-22 14:39:00,61.0,35.2,30.11,NNE,26,0.0,3.0,38,0.00,,,0.00,464,Wunderground v.1.15,2013-10-22 20:39:00,
2013-10-22 14:44:00,61.8,35.2,30.11,NNE,26,0.0,0.0,37,0.00,,,0.00,461,Wunderground v.1.15,2013-10-22 20:44:00,
2013-10-22 14:49:00,62.1,35.5,30.10,NNE,17,0.0,1.0,37,0.00,,,0.00,454,Wunderground v.1.15,2013-10-22 20:49:00,
2013-10-22 14:54:00,63.3,37.9,30.10,North,360,4.0,5.0,39,0.00,,,0.00,445,Wunderground v.1.15,2013-10-22 20:54:00,
2013-10-22 14:59:00,62.8,37.5,30.10,North,355,1.0,10.0,39,0.00,,,0.00,439,Wunderground v.1.15,2013-10-22 20:59:00,
2013-10-22 15:04:00,62.4,37.1,30.09,NNE,27,0.0,5.0,39,0.00,,,0.00,429,Wunderground v.1.15,2013-10-22 21:04:00,
2013-10-22 15:09:00,62.3,36.4,30.09,NE,41,1.0,9.0,38,0.00,,,0.00,422,Wunderground v.1.15,2013-10-22 21:09:00,
2013-10-22 15:14:00,61.5,36.3,30.09,NE,41,0.0,6.0,39,0.00,,,0.00,413,Wunderground v.1.15,2013-10-22 21:14:00,
2013-10-22 15:19:00,62.1,36.8,30.09,North,360,0.0,10.0,39,0.00,,,0.00,404,Wunderground v.1.15,2013-10-22 21:19:00,
2013-10-22 15:24:00,62.1,37.5,30.09,North,5,0.0,8.0,40,0.00,,,0.00,396,Wunderground v.1.15,2013-10-22 21:24:00,
2013-10-22 15:29:00,62.1,36.8,30.09,NNE,29,3.0,8.0,39,0.00,,,0.00,387,Wunderground v.1.15,2013-10-22 21:29:00,
2013-10-22 15:34:00,61.7,37.1,30.09,NNE,28,0.0,4.0,40,0.00,,,0.00,378,Wunderground v.1.15,2013-10-22 21:34:00,
2013-10-22 15:39:00,62.5,36.5,30.09,NNE,30,0.0,4.0,38,0.00,,,0.00,366,Wunderground v.1.15,2013-10-22 21:39:00,
2013-10-22 15:44:00,62.3,36.4,30.09,NNE,13,0.0,8.0,38,0.00,,,0.00,357,Wunderground v.1.15,2013-10-22 21:44:00,
2013-10-22 15:49:00,62.9,36.9,30.09,NNE,31,0.0,8.0,38,0.00,,,0.00,345,Wunderground v.1.15,2013-10-22 21:49:00,
2013-10-22 15:54:00,63.3,36.6,30.09,North,355,3.0,4.0,37,0.00,,,0.00,336,Wunderground v.1.15,2013-10-22 21:54:00,
2013-10-22 15:59:00,63.4,36.0,30.09,NNE,27,0.0,6.0,36,0.00,,,0.00,323,Wunderground v.1.15,2013-10-22 21:59:00,
2013-10-22 16:04:00,63.7,36.2,30.09,NNE,28,0.0,1.0,36,0.00,,,0.00,315,Wunderground v.1.15,2013-10-22 22:04:00,
2013-10-22 16:09:00,63.1,35.7,30.09,NNE,27,0.0,5.0,36,0.00,,,0.00,302,Wunderground v.1.15,2013-10-22 22:09:00,
2013-10-22 16:14:00,62.8,34.7,30.09,NNE,28,0.0,5.0,35,0.00,,,0.00,290,Wunderground v.1.15,2013-10-22 22:14:00,
2013-10-22 16:19:00,62.9,35.5,30.09,NNE,21,0.0,5.0,36,0.00,,,0.00,278,Wunderground v.1.15,2013-10-22 22:19:00,
2013-10-22 16:24:00,63.8,35.6,30.09,NNE,20,0.0,4.0,35,0.00,,,0.00,265,Wunderground v.1.15,2013-10-22 22:24:00,
2013-10-22 16:29:00,63.9,35.7,30.09,NNE,20,0.0,4.0,35,0.00,,,0.00,255,Wunderground v.1.15,2013-10-22 22:29:00,
2013-10-22 16:34:00,63.9,36.4,30.09,NNE,17,0.0,3.0,36,0.00,,,0.00,241,Wunderground v.1.15,2013-10-22 22:34:00,
2013-10-22 16:39:00,63.8,37.0,30.09,NNE,23,1.0,4.0,37,0.00,,,0.00,229,Wunderground v.1.15,2013-10-22 22:39:00,
2013-10-22 16:44:00,63.1,36.4,30.09,North,355,0.0,5.0,37,0.00,,,0.00,218,Wunderground v.1.15,2013-10-22 22:44:00,
2013-10-22 16:49:00,63.7,36.2,30.09,NNW,345,0.0,5.0,36,0.00,,,0.00,188,Wunderground v.1.15,2013-10-22 22:49:00,
2013-10-22 16:54:00,63.5,36.7,30.09,North,360,0.0,4.0,37,0.00,,,0.00,153,Wunderground v.1.15,2013-10-22 22:54:00,
2013-10-22 16:59:00,62.8,36.1,30.09,North,9,0.0,4.0,37,0.00,,,0.00,123,Wunderground v.1.15,2013-10-22 22:59:00,
2013-10-22 17:04:00,62.5,36.5,30.09,NNE,14,0.0,2.0,38,0.00,,,0.00,104,Wunderground v.1.15,2013-10-22 23:04:00,
2013-10-22 17:09:00,62.1,36.2,30.09,NE,34,3.0,5.0,38,0.00,,,0.00,98,Wunderground v.1.15,2013-10-22 23:09:00,
2013-10-22 17:14:00,61.8,35.9,30.09,NE,35,0.0,3.0,38,0.00,,,0.00,104,Wunderground v.1.15,2013-10-22 23:14:00,
2013-10-22 17:19:00,62.1,36.8,30.09,NE,34,0.0,3.0,39,0.00,,,0.00,121,Wunderground v.1.15,2013-10-22 23:19:00,
2013-10-22 17:24:00,62.3,36.4,30.09,NE,35,0.0,0.0,38,0.00,,,0.00,98,Wunderground v.1.15,2013-10-22 23:24:00,
2013-10-22 17:29:00,62.3,36.4,30.09,NE,34,0.0,0.0,38,0.00,,,0.00,33,Wunderground v.1.15,2013-10-22 23:29:00,
2013-10-22 17:34:00,62.2,36.3,30.08,NE,35,0.0,1.0,38,0.00,,,0.00,25,Wunderground v.1.15,2013-10-22 23:34:00,
2013-10-22 17:39:00,61.3,36.1,30.08,NE,34,0.0,1.0,39,0.00,,,0.00,21,Wunderground v.1.15,2013-10-22 23:39:00,
2013-10-22 17:44:00,60.8,35.7,30.08,NE,35,0.0,0.0,39,0.00,,,0.00,19,Wunderground v.1.15,2013-10-22 23:44:00,
2013-10-22 17:49:00,60.1,35.0,30.08,NNE,25,0.0,4.0,39,0.00,,,0.00,18,Wunderground v.1.15,2013-10-22 23:49:00,
2013-10-22 17:54:00,59.5,32.5,30.08,NNE,17,0.0,4.0,36,0.00,,,0.00,16,Wunderground v.1.15,2013-10-22 23:54:00,
2013-10-22 17:59:00,59.0,30.6,30.08,NNW,327,5.0,5.0,34,0.00,,,0.00,14,Wunderground v.1.15,2013-10-22 23:59:00,
2013-10-22 18:04:00,59.0,30.6,30.08,NNW,331,0.0,3.0,34,0.00,,,0.00,14,Wunderground v.1.15,2013-10-23 00:04:00,
2013-10-22 18:09:00,58.4,29.4,30.08,NNW,332,0.0,3.0,33,0.00,,,0.00,12,Wunderground v.1.15,2013-10-23 00:09:00,
2013-10-22 18:14:00,57.6,28.7,30.08,NNW,331,2.0,4.0,33,0.00,,,0.00,11,Wunderground v.1.15,2013-10-23 00:14:00,
2013-10-22 18:19:00,57.1,28.2,30.08,North,355,0.0,4.0,33,0.00,,,0.00,9,Wunderground v.1.15,2013-10-23 00:19:00,
2013-10-22 18:24:00,56.8,28.0,30.08,North,355,0.0,2.0,33,0.00,,,0.00,7,Wunderground v.1.15,2013-10-23 00:24:00,
2013-10-22 18:29:00,56.0,28.0,30.08,North,355,0.0,2.0,34,0.00,,,0.00,5,Wunderground v.1.15,2013-10-23 00:29:00,
2013-10-22 18:34:00,55.1,27.9,30.08,North,355,0.0,0.0,35,0.00,,,0.00,0,Wunderground v.1.15,2013-10-23 00:34:00,
2013-10-22 18:39:00,53.8,28.1,30.08,North,355,0.0,0.0,37,0.00,,,0.00,0,Wunderground v.1.15,2013-10-23 00:39:00,
2013-10-22 18:44:00,52.6,28.3,30.08,North,355,0.0,0.0,39,0.00,,,0.00,0,Wunderground v.1.15,2013-10-23 00:44:00,
2013-10-22 18:49:00,51.6,28.0,30.09,North,355,0.0,0.0,40,0.00,,,0.00,0,Wunderground v.1.15,2013-10-23 00:49:00,
2013-10-22 18:54:00,50.4,28.1,30.09,North,355,0.0,0.0,42,0.00,,,0.00,0,Wunderground v.1.15,2013-10-23 00:54:00,
2013-10-22 18:59:00,49.6,27.4,30.09,North,355,0.0,3.0,42,0.00,,,0.00,0,Wunderground v.1.15,2013-10-23 00:59:00,
2013-10-22 19:04:00,49.4,28.4,30.09,North,355,0.0,1.0,44,0.00,,,0.00,0,Wunderground v.1.15,2013-10-23 01:04:00,
2013-10-22 19:09:00,49.1,28.7,30.09,North,355,0.0,1.0,45,0.00,,,0.00,0,Wunderground v.1.15,2013-10-23 01:09:00,
2013-10-22 19:14:00,48.0,28.2,30.09,NNW,346,0.0,4.0,46,0.00,,,0.00,0,Wunderground v.1.15,2013-10-23 01:14:00,
2013-10-22 19:20:00,47.5,28.3,30.09,NNW,347,0.0,4.0,47,0.00,,,0.00,0,Wunderground v.1.15,2013-10-23 01:20:00,
2013-10-22 19:25:00,47.0,28.3,30.09,NNW,344,0.0,3.0,48,0.00,,,0.00,0,Wunderground v.1.15,2013-10-23 01:25:00,
2013-10-22 19:30:00,46.1,27.5,30.09,NNW,334,1.0,3.0,48,0.00,,,0.00,0,Wunderground v.1.15,2013-10-23 01:30:00,
2013-10-22 19:35:00,45.6,27.5,30.09,NNW,334,0.0,0.0,49,0.00,,,0.00,0,Wunderground v.1.15,2013-10-23 01:35:00,
2013-10-22 19:40:00,45.0,27.5,30.09,NW,317,0.0,0.0,50,0.00,,,0.00,0,Wunderground v.1.15,2013-10-23 01:40:00,
2013-10-22 19:45:00,44.2,27.2,30.09,NW,315,0.0,3.0,51,0.00,,,0.00,0,Wunderground v.1.15,2013-10-23 01:45:00,
2013-10-22 19:50:00,43.4,26.9,30.10,NW,316,0.0,0.0,52,0.00,,,0.00,0,Wunderground v.1.15,2013-10-23 01:50:00,
2013-10-22 19:55:00,42.3,26.8,30.10,NW,310,0.0,4.0,54,0.00,,,0.00,0,Wunderground v.1.15,2013-10-23 01:55:00,
2013-10-22 20:00:00,41.9,26.9,30.10,NW,310,0.0,0.0,55,0.00,,,0.00,0,Wunderground v.1.15,2013-10-23 02:00:00,
2013-10-22 20:05:00,41.7,26.7,30.10,NW,309,0.0,0.0,55,0.00,,,0.00,0,Wunderground v.1.15,2013-10-23 02:05:00,
2013-10-22 20:10:00,41.4,27.3,30.10,NW,309,0.0,0.0,57,0.00,,,0.00,0,Wunderground v.1.15,2013-10-23 02:10:00,
2013-10-22 20:15:00,41.1,27.0,30.10,NW,309,0.0,0.0,57,0.00,,,0.00,0,Wunderground v.1.15,2013-10-23 02:15:00,
2013-10-22 20:20:00,40.8,27.6,30.11,NW,309,0.0,0.0,59,0.00,,,0.00,0,Wunderground v.1.15,2013-10-23 02:20:00,
2013-10-22 20:25:00,40.3,27.5,30.11,NW,309,0.0,0.0,60,0.00,,,0.00,0,Wunderground v.1.15,2013-10-23 02:25:00,
2013-10-22 20:30:00,39.3,28.1,30.11,NW,309,0.0,0.0,64,0.00,,,0.00,0,Wunderground v.1.15,2013-10-23 02:30:00,
2013-10-22 20:35:00,38.8,28.4,30.12,NW,307,0.0,0.0,66,0.00,,,0.00,0,Wunderground v.1.15,2013-10-23 02:35:00,
2013-10-22 20:40:00,38.6,28.2,30.12,NW,308,0.0,0.0,66,0.00,,,0.00,0,Wunderground v.1.15,2013-10-23 02:40:00,
2013-10-22 20:45:00,38.3,27.9,30.12,NW,308,0.0,0.0,66,0.00,,,0.00,0,Wunderground v.1.15,2013-10-23 02:45:00,
2013-10-22 20:50:00,38.1,27.7,30.12,NW,308,0.0,0.0,66,0.00,,,0.00,0,Wunderground v.1.15,2013-10-23 02:50:00,
2013-10-22 20:55:00,37.8,27.8,30.12,NW,308,0.0,0.0,67,0.00,,,0.00,0,Wunderground v.1.15,2013-10-23 02:55:00,
2013-10-22 21:00:00,37.4,28.2,30.12,WNW,298,0.0,0.0,69,0.00,,,0.00,0,Wunderground v.1.15,2013-10-23 03:00:00,
2013-10-22 21:05:00,36.9,27.7,30.13,WNW,283,0.0,2.0,69,0.00,,,0.00,0,Wunderground v.1.15,2013-10-23 03:05:00,
2013-10-22 21:10:00,37.0,28.5,30.13,SSW,203,0.0,1.0,71,0.00,,,0.00,0,Wunderground v.1.15,2013-10-23 03:10:00,
2013-10-22 21:15:00,37.3,29.1,30.13,South,190,0.0,6.0,72,0.00,,,0.00,0,Wunderground v.1.15,2013-10-23 03:15:00,
2013-10-22 21:20:00,37.5,29.3,30.13,South,190,0.0,1.0,72,0.00,,,0.00,0,Wunderground v.1.15,2013-10-23 03:20:00,
2013-10-22 21:25:00,37.6,29.4,30.13,South,190,0.0,1.0,72,0.00,,,0.00,0,Wunderground v.1.15,2013-10-23 03:25:00,
2013-10-22 21:30:00,37.1,28.6,30.13,South,190,0.0,0.0,71,0.00,,,0.00,0,Wunderground v.1.15,2013-10-23 03:30:00,
2013-10-22 21:35:00,36.0,27.5,30.13,South,190,0.0,0.0,71,0.00,,,0.00,0,Wunderground v.1.15,2013-10-23 03:35:00,
2013-10-22 21:40:00,34.7,26.9,30.13,South,190,0.0,0.0,73,0.00,,,0.00,0,Wunderground v.1.15,2013-10-23 03:40:00,
2013-10-22 21:45:00,34.4,27.3,30.13,South,190,0.0,0.0,75,0.00,,,0.00,0,Wunderground v.1.15,2013-10-23 03:45:00,
2013-10-22 21:50:00,34.4,27.3,30.14,South,190,0.0,0.0,75,0.00,,,0.00,0,Wunderground v.1.15,2013-10-23 03:50:00,
2013-10-22 21:55:00,34.1,27.3,30.14,South,190,0.0,0.0,76,0.00,,,0.00,0,Wunderground v.1.15,2013-10-23 03:55:00,
2013-10-22 22:00:00,34.3,27.8,30.14,South,190,0.0,0.0,77,0.00,,,0.00,0,Wunderground v.1.15,2013-10-23 04:00:00,
2013-10-22 22:01:00,34.3,27.8,30.14,South,190,0.0,0.0,77,0.00,,,0.00,0,Wunderground v.1.15,2013-10-23 04:01:00,
2013-10-22 22:06:00,34.4,27.9,30.14,South,190,0.0,0.0,77,0.00,,,0.00,0,Wunderground v.1.15,2013-10-23 04:06:00,
2013-10-22 22:11:00,34.4,27.3,30.14,SW,220,0.0,0.0,75,0.00,,,0.00,0,Wunderground v.1.15,2013-10-23 04:11:00,
2013-10-22 22:16:00,34.9,27.8,30.14,SW,219,0.0,0.0,75,0.00,,,0.00,0,Wunderground v.1.15,2013-10-23 04:16:00,
2013-10-22 22:21:00,35.0,27.9,30.14,SW,219,0.0,0.0,75,0.00,,,0.00,0,Wunderground v.1.15,2013-10-23 04:21:00,
2013-10-22 22:26:00,34.6,27.5,30.14,SW,224,0.0,0.0,75,0.00,,,0.00,0,Wunderground v.1.15,2013-10-23 04:26:00,
2013-10-22 22:31:00,34.4,27.6,30.14,SW,223,0.0,0.0,76,0.00,,,0.00,0,Wunderground v.1.15,2013-10-23 04:31:00,
2013-10-22 22:36:00,34.0,27.2,30.14,SW,222,0.0,0.0,76,0.00,,,0.00,0,Wunderground v.1.15,2013-10-23 04:36:00,
2013-10-22 22:41:00,33.4,27.0,30.14,SW,222,0.0,0.0,77,0.00,,,0.00,0,Wunderground v.1.15,2013-10-23 04:41:00,
2013-10-22 22:46:00,33.0,26.9,30.15,SW,219,0.0,0.0,78,0.00,,,0.00,0,Wunderground v.1.15,2013-10-23 04:46:00,
2013-10-22 22:51:00,32.8,26.7,30.15,SW,219,0.0,0.0,78,0.00,,,0.00,0,Wunderground v.1.15,2013-10-23 04:51:00,
2013-10-22 22:56:00,32.6,26.5,30.15,SW,219,0.0,0.0,78,0.00,,,0.00,0,Wunderground v.1.15,2013-10-23 04:56:00,
2013-10-22 23:01:00,32.4,26.3,30.15,SW,219,0.0,0.0,78,0.00,,,0.00,0,Wunderground v.1.15,2013-10-23 05:01:00,
2013-10-22 23:06:00,32.2,26.4,30.15,SW,219,0.0,0.0,79,0.00,,,0.00,0,Wunderground v.1.15,2013-10-23 05:06:00,
2013-10-22 23:11:00,32.0,26.2,30.15,SW,218,0.0,0.0,79,0.00,,,0.00,0,Wunderground v.1.15,2013-10-23 05:11:00,
2013-10-22 23:16:00,31.7,25.9,30.15,SW,218,0.0,0.0,79,0.00,,,0.00,0,Wunderground v.1.15,2013-10-23 05:16:00,
2013-10-22 23:22:00,31.5,25.7,30.15,SW,219,0.0,0.0,79,0.00,,,0.00,0,Wunderground v.1.15,2013-10-23 05:22:00,
2013-10-22 23:27:00,31.4,25.6,30.15,SW,218,0.0,0.0,79,0.00,,,0.00,0,Wunderground v.1.15,2013-10-23 05:27:00,
2013-10-22 23:32:00,31.3,25.5,30.15,SW,219,0.0,0.0,79,0.00,,,0.00,0,Wunderground v.1.15,2013-10-23 05:32:00,
2013-10-22 23:37:00,31.3,25.5,30.15,SW,218,0.0,0.0,79,0.00,,,0.00,0,Wunderground v.1.15,2013-10-23 05:37:00,
2013-10-22 23:42:00,31.4,25.9,30.15,SW,218,0.0,0.0,80,0.00,,,0.00,0,Wunderground v.1.15,2013-10-23 05:42:00,
2013-10-22 23:47:00,31.4,25.9,30.16,SW,218,0.0,0.0,80,0.00,,,0.00,0,Wunderground v.1.15,2013-10-23 05:47:00,
2013-10-22 23:52:00,31.1,25.3,30.16,SW,218,0.0,0.0,79,0.00,,,0.00,0,Wunderground v.1.15,2013-10-23 05:52:00,
2013-10-22 23:57:00,30.6,25.2,30.16,SW,218,0.0,0.0,80,0.00,,,0.00,0,Wunderground v.1.15,2013-10-23 05:57:00,